Vorticity
nan nan nan nan nan nan nan nan nan nan nan nan nan nan nan nan nan nan nan nan nan nan nan nan nan nan nan nan nan nan nan nan nan nan nan nan nan nan
nan 10 6 7 8 8 8 7 7 7 7 7 11 13 11 9 11 9 9 12 15 7 6 8 10 8 9 8 7 8 8 7 7 6 6 6 7 nan
nan 10 7 7 6 7 9 8 8 9 9 5 8 12 12 8 8 9 10 11 15 14 8 6 7 6 8 7 9 8 8 8 8 7 7 7 7 nan
nan 9 8 9 8 8 8 9 9 8 12 10 4 9 10 11 10 10 8 9 11 17 12 8 7 6 6 7 8 9 10 9 8 9 8 8 8 nan
nan 9 10 8 8 9 8 7 9 9 10 12 9 8 10 11 12 11 11 9 9 17 14 11 8 8 7 7 7 8 10 9 8 8 8 9 9 nan
nan 10 10 9 10 9 12 13 11 10 10 9 10 7 9 10 10 10 9 11 9 11 12 13 14 13 12 11 8 7 9 9 8 6 9 10 8 nan
nan 13 13 12 12 11 12 12 12 12 9 8 8 7 6 8 8 8 9 11 12 11 10 9 14 13 16 13 11 12 9 8 8 9 10 10 8 nan
nan 12 18 17 15 15 14 11 9 9 8 10 9 9 7 5 8 8 9 8 11 14 9 10 13 7 10 18 17 11 9 9 9 9 9 10 9 nan
nan 11 9 9 12 14 12 13 14 14 16 17 17 12 12 12 13 12 11 9 8 11 13 11 13 13 13 16 16 14 11 11 10 9 9 9 8 nan
nan 13 11 9 11 13 10 11 10 10 13 14 13 13 12 9 12 17 14 10 11 10 14 16 13 15 11 15 18 12 13 13 10 9 9 8 8 nan
nan 10 13 8 10 15 13 11 10 9 5 5 10 15 15 17 14 10 11 9 9 12 10 10 10 13 11 10 19 19 13 11 10 9 7 8 9 nan
nan 4 7 10 8 13 14 10 10 8 9 12 10 9 10 15 16 12 13 10 8 11 12 9 10 10 10 13 12 13 19 19 15 11 9 8 4 nan
nan 8 2 5 9 11 15 16 11 8 11 12 11 10 9 10 12 10 10 12 11 11 13 11 7 9 11 11 10 13 13 15 17 20 18 11 7 nan
nan 10 7 6 9 9 8 7 19 20 11 10 11 10 10 10 10 9 10 11 12 9 12 11 10 12 10 9 11 10 12 11 11 14 18 19 16 nan
nan 9 9 8 10 7 7 10 14 15 12 11 11 11 11 10 10 11 11 11 10 9 11 11 11 10 11 10 11 11 11 11 10 11 13 13 12 nan
nan 10 6 7 10 11 10 10 11 11 11 12 11 11 10 10 11 11 9 11 9 11 10 8 10 12 10 10 9 10 11 14 11 10 10 10 11 nan
nan 11 8 8 7 8 10 11 10 9 10 11 11 11 11 11 11 10 10 10 9 9 10 12 11 10 11 11 9 10 10 11 11 11 11 10 11 nan
nan 9 9 9 9 10 10 10 8 10 11 9 10 10 11 12 11 12 12 9 10 11 10 11 10 9 10 13 12 6 10 11 11 9 10 11 12 nan
nan 10 10 8 9 10 10 10 11 10 11 12 10 10 11 9 11 14 13 12 11 11 12 12 10 9 8 9 19 13 4 10 10 10 11 10 11 nan
nan 9 10 11 10 10 10 10 10 10 11 11 11 12 12 11 11 12 12 10 11 12 12 11 10 8 11 12 10 18 13 6 11 10 9 10 9 nan
nan 10 10 9 9 9 10 11 11 10 10 11 11 11 11 11 12 12 9 10 15 15 13 13 17 10 8 11 10 10 17 13 8 12 11 11 11 nan
nan 10 11 10 8 10 10 11 10 11 11 11 11 11 11 11 11 11 11 14 15 13 13 14 17 16 11 9 9 10 11 16 16 9 6 7 8 nan
nan nan nan nan nan nan nan nan nan nan nan nan nan nan nan nan nan nan nan nan nan nan nan nan nan nan nan nan nan nan nan nan nan nan nan nan nan nan
CAPE
0 0 0 0 0 0 1 0 0 0 2 3 0 5 3 4 0 0 0 0 0 0 0 0 0 0 0 2 3 0 0 0 0 0 0 0 1 1
1 1 0 0 0 11 24 25 13 10 18 0 1 0 2 0 0 0 0 0 0 0 0 0 0 0 0 1 3 1 0 0 1 0 0 0 1 1
1 2 3 0 0 0 12 44 28 8 32 23 12 0 0 0 0 0 0 0 0 0 0 0 0 0 0 0 0 0 2 1 1 1 0 0 1 2
49 0 0 0 0 0 1 19 36 25 41 57 33 0 0 0 0 0 0 0 0 0 0 0 0 0 0 0 0 0 0 0 0 0 0 0 2 3
82 49 20 24 18 0 0 2 27 15 19 37 50 0 0 0 1 0 0 0 0 0 0 0 0 0 0 0 2 0 0 0 0 0 0 0 0 1
113 93 68 39 5 15 0 0 8 18 3 3 0 0 0 0 0 0 0 0 0 0 0 0 0 1 2 3 0 0 0 0 0 0 0 2 0 0
122 72 26 41 24 3 5 0 0 0 1 9 19 0 0 0 0 0 0 0 0 0 0 0 0 0 0 3 0 0 0 0 0 0 0 10 0 0
33 0 0 1 1 0 1 1 0 0 0 0 3 1 0 0 0 0 0 0 0 0 0 0 0 0 0 0 0 0 0 0 0 0 0 8 0 0
0 0 0 0 0 0 0 0 0 0 0 0 1 0 0 0 0 0 0 0 0 0 0 0 0 0 0 0 0 0 0 0 0 0 0 0 0 0
0 0 0 0 1 0 0 0 0 0 0 1 1 0 0 0 0 0 0 0 0 0 0 0 0 0 0 0 4 5 4 4 0 0 0 0 0 0
0 0 1 2 3 1 0 0 0 0 0 0 1 1 1 1 0 0 1 0 1 0 0 0 0 0 0 0 0 7 12 6 1 0 0 1 0 0
0 0 1 1 1 2 0 1 0 0 0 0 0 0 0 0 2 0 0 0 0 0 0 0 0 0 0 0 0 0 1 10 4 3 4 2 1 0
1 1 2 0 0 0 1 1 0 0 0 0 0 0 0 0 0 0 0 0 0 0 0 0 0 0 1 0 0 0 0 0 0 3 5 4 3 0
1 1 0 0 1 2 2 4 2 2 0 0 0 0 0 0 0 0 0 0 0 0 0 0 0 0 0 0 0 0 0 0 0 0 0 0 5 5
4 0 1 3 3 0 3 2 1 0 0 0 0 0 0 0 0 0 0 0 0 0 0 0 0 0 0 0 0 0 0 0 0 0 0 0 0 0
0 1 3 2 2 1 0 0 1 0 0 0 0 0 0 0 0 0 0 0 0 0 0 0 4 2 0 0 1 0 2 0 0 0 0 0 0 0
2 0 1 0 0 0 0 0 0 0 0 2 1 0 0 0 0 0 0 0 0 0 0 0 0 0 0 0 0 0 0 0 0 0 0 0 0 0
1 1 2 2 2 2 4 1 1 2 3 0 2 2 0 0 0 0 0 0 0 0 0 0 0 0 0 0 3 0 0 0 0 0 0 0 0 0
0 0 0 0 1 0 0 0 5 9 8 10 15 6 4 2 4 0 4 0 0 0 0 0 0 0 0 0 0 5 0 0 0 0 0 0 0 0
0 0 0 1 1 2 1 1 3 2 2 8 5 4 2 1 1 3 0 6 4 0 0 0 0 0 0 0 0 0 1 0 0 0 0 0 0 0
0 0 0 0 0 3 2 4 5 1 1 7 13 14 12 8 5 5 3 14 18 5 1 0 0 1 0 0 0 0 0 1 1 0 0 0 0 0
0 0 0 1 3 0 0 0 2 0 2 7 4 5 6 7 7 5 5 2 1 5 8 1 0 0 0 0 0 0 0 0 5 7 3 0 0 0
0 0 0 1 0 0 0 2 3 4 3 2 1 2 2 4 6 6 7 3 1 3 6 5 0 0 0 0 1 0 0 0 0 0 2 8 2 3